Location: Pianadetto
(44.4000°N, 10.1000°E)
Time: 12:33:45
(UTC+00:00)

Cosmos 1536 Rocket - Visible Passes

Search period start: 26 September 2022 00:00
Search period end: 06 October 2022 00:00
Orbit: 603 x 633 km, 82.5° (Epoch: 26 September)

Date Brightness Start Highest point End Pass type
(mag) Time Alt. Az. Time Alt. Az. Time Alt. Az.
28 Sep 6.2 19:58:58 10° N 19:59:21 12° N 19:59:21 12° N visible
29 Sep 6.2 20:15:52 10° N 20:16:23 13° N 20:16:23 13° N visible
30 Sep 6.4 20:33:00 10° NNW 20:33:27 13° NNW 20:33:27 13° NNW visible
01 Oct 5.9 19:12:48 10° NNE 19:13:22 13° NNE 19:13:22 13° NNE visible
01 Oct 6.7 20:50:23 10° NNW 20:50:31 11° NNW 20:50:31 11° NNW visible
02 Oct 5.8 19:29:26 10° N 19:30:27 16° N 19:30:27 16° N visible
03 Oct 5.8 19:46:22 10° N 19:47:34 19° N 19:47:34 19° N visible
04 Oct 5.8 18:27:08 10° NE 18:27:34 11° NE 18:27:34 11° NE visible
04 Oct 6.0 20:03:29 10° NNW 20:04:43 18° NNW 20:04:43 18° NNW visible
05 Oct 5.4 18:43:16 10° NNE 18:44:44 17° NNE 18:44:44 17° NNE visible
05 Oct 6.3 20:20:53 10° NNW 20:21:52 16° NW 20:21:52 16° NW visible
